Time,TemperatureF,DewpointF,PressureIn,WindDirection,WindDirectionDegrees,WindSpeedMPH,WindSpeedGustMPH,Humidity,HourlyPrecipIn,Conditions,Clouds,dailyrainin,SolarRadiationWatts/m^2,SoftwareType,DateUTC
2013-07-11 00:01:00,70.0,26.0,29.88,East,79,5.0,10.0,19,0.00,,,0.00,0.000000,,2013-07-11 06:01:00,
2013-07-11 00:11:00,70.0,26.0,29.88,East,79,5.0,10.0,19,0.00,,,0.00,0.000000,,2013-07-11 06:11:00,
2013-07-11 00:12:00,70.0,25.0,29.94,ESE,103,6.0,9.0,18,0.00,,,-99.99,0.000000,,2013-07-11 06:12:00,
2013-07-11 00:43:00,70.0,25.0,29.94,ESE,103,6.0,9.0,18,0.00,,,-99.99,0.000000,,2013-07-11 06:43:00,
2013-07-11 00:53:00,70.0,25.0,29.94,ESE,103,6.0,9.0,18,0.00,,,-99.99,0.000000,,2013-07-11 06:53:00,
2013-07-11 01:02:00,70.0,25.0,29.94,ESE,103,6.0,9.0,18,0.00,,,-99.99,0.000000,,2013-07-11 07:02:00,
2013-07-11 01:45:00,68.0,27.0,30.00,East,101,13.0,16.0,21,0.00,,,0.00,0.000000,,2013-07-11 07:45:00,
2013-07-11 01:53:00,68.0,27.0,30.00,East,101,13.0,16.0,21,0.00,,,0.00,0.000000,,2013-07-11 07:53:00,
2013-07-11 02:02:00,68.0,27.0,30.00,East,101,13.0,16.0,21,0.00,,,0.00,0.000000,,2013-07-11 08:02:00,
2013-07-11 02:11:00,68.0,27.0,30.00,East,101,13.0,16.0,21,0.00,,,0.00,0.000000,,2013-07-11 08:11:00,
2013-07-11 02:12:00,65.0,31.0,29.99,ESE,110,21.0,26.0,28,0.00,,,0.00,0.000000,,2013-07-11 08:12:00,
2013-07-11 02:43:00,65.0,31.0,29.99,ESE,110,21.0,26.0,28,0.00,,,0.00,0.000000,,2013-07-11 08:43:00,
2013-07-11 02:53:00,65.0,31.0,29.99,ESE,110,21.0,26.0,28,0.00,,,0.00,0.000000,,2013-07-11 08:53:00,
2013-07-11 03:02:00,65.0,31.0,29.99,ESE,110,21.0,26.0,28,0.00,,,0.00,0.000000,,2013-07-11 09:02:00,
2013-07-11 03:12:00,64.0,33.0,30.03,ESE,118,21.0,28.0,31,0.00,,,0.00,0.000000,,2013-07-11 09:12:00,
2013-07-11 03:43:00,64.0,33.0,30.03,ESE,118,21.0,28.0,31,0.00,,,0.00,0.000000,,2013-07-11 09:43:00,
2013-07-11 03:53:00,64.0,33.0,30.03,ESE,118,21.0,28.0,31,0.00,,,0.00,0.000000,,2013-07-11 09:53:00,
2013-07-11 04:01:00,64.0,33.0,30.03,ESE,118,21.0,28.0,31,0.00,,,0.00,0.000000,,2013-07-11 10:01:00,
2013-07-11 04:12:00,64.0,33.0,30.07,ESE,109,17.0,26.0,31,0.00,,,0.00,0.000000,,2013-07-11 10:12:00,
2013-07-11 04:43:00,64.0,33.0,30.07,ESE,109,17.0,26.0,31,0.00,,,0.00,0.000000,,2013-07-11 10:43:00,
2013-07-11 04:52:00,64.0,33.0,30.07,ESE,109,17.0,26.0,31,0.00,,,0.00,0.000000,,2013-07-11 10:52:00,
2013-07-11 05:02:00,64.0,33.0,30.07,ESE,109,17.0,26.0,31,0.00,,,0.00,0.000000,,2013-07-11 11:02:00,
2013-07-11 05:12:00,65.0,33.0,30.11,ESE,110,12.0,21.0,30,0.00,,,-99.99,0.000000,,2013-07-11 11:12:00,
2013-07-11 05:43:00,65.0,33.0,30.11,ESE,110,12.0,21.0,30,0.00,,,-99.99,0.000000,,2013-07-11 11:43:00,
2013-07-11 05:53:00,65.0,33.0,30.11,ESE,110,12.0,21.0,30,0.00,,,-99.99,0.000000,,2013-07-11 11:53:00,
2013-07-11 06:01:00,65.0,33.0,30.11,ESE,110,12.0,21.0,30,0.00,,,-99.99,0.000000,,2013-07-11 12:01:00,
2013-07-11 06:12:00,64.0,33.0,30.20,ESE,106,11.0,14.0,31,0.00,,,-99.99,5.000000,,2013-07-11 12:12:00,
2013-07-11 06:43:00,64.0,33.0,30.20,ESE,106,11.0,14.0,31,0.00,,,-99.99,5.000000,,2013-07-11 12:43:00,
2013-07-11 06:57:00,64.0,33.0,30.20,ESE,106,11.0,14.0,31,0.00,,,-99.99,5.000000,,2013-07-11 12:57:00,
2013-07-11 07:12:00,64.0,33.0,30.23,East,90,7.0,14.0,31,0.00,,,-99.99,85.000000,,2013-07-11 13:12:00,
2013-07-11 07:47:00,64.0,33.0,30.23,East,90,7.0,14.0,31,0.00,,,-99.99,85.000000,,2013-07-11 13:47:00,
2013-07-11 07:54:00,64.0,33.0,30.23,East,90,7.0,14.0,31,0.00,,,-99.99,85.000000,,2013-07-11 13:54:00,
2013-07-11 08:04:00,64.0,33.0,30.23,East,90,7.0,14.0,31,0.00,,,-99.99,85.000000,,2013-07-11 14:04:00,
2013-07-11 08:55:00,66.0,37.0,30.08,East,101,8.0,12.0,34,0.00,,,0.00,363.000000,,2013-07-11 14:55:00,
2013-07-11 09:04:00,66.0,37.0,30.08,East,101,8.0,12.0,34,0.00,,,0.00,363.000000,,2013-07-11 15:04:00,
2013-07-11 09:12:00,68.0,38.0,29.95,East,98,8.0,14.0,33,0.00,,,0.00,592.000000,,2013-07-11 15:12:00,
2013-07-11 09:48:00,68.0,38.0,29.95,East,98,8.0,14.0,33,0.00,,,0.00,592.000000,,2013-07-11 15:48:00,
2013-07-11 09:58:00,68.0,38.0,29.95,East,98,8.0,14.0,33,0.00,,,0.00,592.000000,,2013-07-11 15:58:00,
2013-07-11 10:05:00,68.0,38.0,29.95,East,98,8.0,14.0,33,0.00,,,0.00,592.000000,,2013-07-11 16:05:00,
2013-07-11 10:12:00,75.0,40.0,29.84,SE,146,3.0,10.0,28,0.00,,,0.00,805.000000,,2013-07-11 16:12:00,
2013-07-11 10:49:00,75.0,40.0,29.84,SE,146,3.0,10.0,28,0.00,,,0.00,805.000000,,2013-07-11 16:49:00,
2013-07-11 10:56:00,75.0,40.0,29.84,SE,146,3.0,10.0,28,0.00,,,0.00,805.000000,,2013-07-11 16:56:00,
2013-07-11 11:02:00,75.0,40.0,29.84,SE,146,3.0,10.0,28,0.00,,,0.00,805.000000,,2013-07-11 17:02:00,
2013-07-11 11:12:00,80.0,47.0,29.69,WSW,255,1.0,7.0,31,0.00,,,0.00,971.000000,,2013-07-11 17:12:00,
2013-07-11 11:39:00,80.0,47.0,29.69,WSW,255,1.0,7.0,31,0.00,,,0.00,971.000000,,2013-07-11 17:39:00,
2013-07-11 11:49:00,80.0,47.0,29.69,WSW,255,1.0,7.0,31,0.00,,,0.00,971.000000,,2013-07-11 17:49:00,
2013-07-11 12:04:00,80.0,47.0,29.69,WSW,255,1.0,7.0,31,0.00,,,0.00,971.000000,,2013-07-11 18:04:00,
2013-07-11 12:12:00,82.0,43.0,29.48,WNW,284,3.0,9.0,25,0.00,,,0.00,1086.000000,,2013-07-11 18:12:00,
2013-07-11 12:48:00,82.0,43.0,29.48,WNW,284,3.0,9.0,25,0.00,,,0.00,1086.000000,,2013-07-11 18:48:00,
2013-07-11 12:56:00,82.0,43.0,29.48,WNW,284,3.0,9.0,25,0.00,,,0.00,1086.000000,,2013-07-11 18:56:00,
2013-07-11 13:03:00,82.0,43.0,29.48,WNW,284,3.0,9.0,25,0.00,,,0.00,1086.000000,,2013-07-11 19:03:00,
2013-07-11 13:12:00,83.0,45.0,29.37,SSW,197,7.0,13.0,26,0.00,,,0.00,1151.000000,,2013-07-11 19:12:00,
2013-07-11 13:39:00,83.0,45.0,29.37,SSW,197,7.0,13.0,26,0.00,,,0.00,1151.000000,,2013-07-11 19:39:00,
2013-07-11 13:47:00,83.0,45.0,29.37,SSW,197,7.0,13.0,26,0.00,,,0.00,1151.000000,,2013-07-11 19:47:00,
2013-07-11 13:57:00,83.0,45.0,29.37,SSW,197,7.0,13.0,26,0.00,,,0.00,1151.000000,,2013-07-11 19:57:00,
2013-07-11 14:04:00,83.0,45.0,29.37,SSW,197,7.0,13.0,26,0.00,,,0.00,1151.000000,,2013-07-11 20:04:00,
2013-07-11 14:12:00,79.0,47.0,29.46,WNW,295,8.0,16.0,33,0.00,,,0.00,749.000000,,2013-07-11 20:12:00,
2013-07-11 14:56:00,79.0,47.0,29.46,WNW,295,8.0,16.0,33,0.00,,,0.00,749.000000,,2013-07-11 20:56:00,
2013-07-11 15:05:00,79.0,47.0,29.46,WNW,295,8.0,16.0,33,0.00,,,0.00,749.000000,,2013-07-11 21:05:00,
2013-07-11 15:12:00,86.0,44.0,29.34,WNW,294,4.0,11.0,23,0.00,,,0.00,859.000000,,2013-07-11 21:12:00,
2013-07-11 16:04:00,86.0,44.0,29.34,WNW,294,4.0,11.0,23,0.00,,,0.00,859.000000,,2013-07-11 22:04:00,
2013-07-11 16:12:00,86.0,41.0,29.27,West,266,3.0,13.0,21,0.00,,,0.00,988.000000,,2013-07-11 22:12:00,
2013-07-11 16:49:00,86.0,41.0,29.27,West,266,3.0,13.0,21,0.00,,,0.00,988.000000,,2013-07-11 22:49:00,
2013-07-11 16:55:00,86.0,41.0,29.27,West,266,3.0,13.0,21,0.00,,,0.00,988.000000,,2013-07-11 22:55:00,
2013-07-11 17:05:00,86.0,41.0,29.27,West,266,3.0,13.0,21,0.00,,,0.00,988.000000,,2013-07-11 23:05:00,
2013-07-11 17:12:00,84.0,41.0,29.26,East,95,6.0,17.0,22,0.00,,,0.00,726.000000,,2013-07-11 23:12:00,
2013-07-11 17:47:00,84.0,41.0,29.26,East,95,6.0,17.0,22,0.00,,,0.00,726.000000,,2013-07-11 23:47:00,
2013-07-11 17:59:00,84.0,41.0,29.26,East,95,6.0,17.0,22,0.00,,,0.00,726.000000,,2013-07-11 23:59:00,
2013-07-11 18:04:00,84.0,41.0,29.26,East,95,6.0,17.0,22,0.00,,,0.00,726.000000,,2013-07-12 00:04:00,
2013-07-11 18:46:00,71.0,37.0,29.54,WNW,295,20.0,31.0,29,0.00,,,0.00,150.000000,,2013-07-12 00:46:00,
2013-07-11 18:58:00,71.0,37.0,29.54,WNW,295,20.0,31.0,29,0.00,,,0.00,150.000000,,2013-07-12 00:58:00,
2013-07-11 19:12:00,68.0,41.0,29.77,NW,305,21.0,36.0,37,0.00,,,0.00,92.000000,,2013-07-12 01:12:00,
2013-07-11 19:48:00,68.0,41.0,29.77,NW,305,21.0,36.0,37,0.00,,,0.00,92.000000,,2013-07-12 01:48:00,
2013-07-11 19:56:00,68.0,41.0,29.77,NW,305,21.0,36.0,37,0.00,,,0.00,92.000000,,2013-07-12 01:56:00,
2013-07-11 20:05:00,68.0,41.0,29.77,NW,305,21.0,36.0,37,0.00,,,0.00,92.000000,,2013-07-12 02:05:00,
2013-07-11 20:12:00,64.0,40.0,29.90,ENE,65,2.0,27.0,41,0.00,,,0.00,29.000000,,2013-07-12 02:12:00,
2013-07-11 20:36:00,64.0,40.0,29.90,ENE,65,2.0,27.0,41,0.00,,,0.00,29.000000,,2013-07-12 02:36:00,
2013-07-11 20:45:00,64.0,40.0,29.90,ENE,65,2.0,27.0,41,0.00,,,0.00,29.000000,,2013-07-12 02:45:00,
2013-07-11 20:55:00,64.0,40.0,29.90,ENE,65,2.0,27.0,41,0.00,,,0.00,29.000000,,2013-07-12 02:55:00,
2013-07-11 21:02:00,64.0,40.0,29.90,ENE,65,2.0,27.0,41,0.00,,,0.00,29.000000,,2013-07-12 03:02:00,
2013-07-11 21:46:00,63.0,42.0,30.09,SSW,195,6.0,17.0,47,0.00,,,0.00,2.000000,,2013-07-12 03:46:00,
2013-07-11 21:56:00,63.0,42.0,30.09,SSW,195,6.0,17.0,47,0.00,,,0.00,2.000000,,2013-07-12 03:56:00,
2013-07-11 22:01:00,63.0,42.0,30.09,SSW,195,6.0,17.0,47,0.00,,,0.00,2.000000,,2013-07-12 04:01:00,
2013-07-11 22:11:00,63.0,42.0,30.09,SSW,195,6.0,17.0,47,0.00,,,0.00,2.000000,,2013-07-12 04:11:00,
2013-07-11 22:43:00,60.0,45.0,30.17,WNW,298,8.0,23.0,57,0.00,,,0.00,0.000000,,2013-07-12 04:43:00,
2013-07-11 22:53:00,60.0,45.0,30.17,WNW,298,8.0,23.0,57,0.00,,,0.00,0.000000,,2013-07-12 04:53:00,
2013-07-11 23:02:00,60.0,45.0,30.17,WNW,298,8.0,23.0,57,0.00,,,0.00,0.000000,,2013-07-12 05:02:00,
2013-07-11 23:11:00,60.0,45.0,30.17,WNW,298,8.0,23.0,57,0.00,,,0.00,0.000000,,2013-07-12 05:11:00,
2013-07-11 23:43:00,60.0,45.0,30.24,WNW,296,12.0,16.0,58,0.00,,,0.00,0.000000,,2013-07-12 05:43:00,
2013-07-11 23:53:00,60.0,45.0,30.24,WNW,296,12.0,16.0,58,0.00,,,0.00,0.000000,,2013-07-12 05:53:00,